FENGYUN 1C DEB, 37689

Orbit data source: Space-Track

FENGYUN 1C DEB, 37689 is space debris in SSO originally from a launch on Mon, 10 May 1999 UTC launched from the Taiyaun Space Center, China (TSC). Fengyun 1C debris stems from the Chinese weather satellite Fengyun-1C, which was intentionally destroyed by a Chinese anti-satellite missile in 2007. This event dramatically increased the amount of space debris, with thousands of trackable fragments posing hazards to satellites and human spaceflight. The Fengyun 1C debris cloud has become a focal point in discussions about space sustainability and the need for international regulations to prevent the creation of new debris.

Loading next visibility...
Identifier
37689, 1999-025ELE
Orbit
SSO
Country
Flag of CNCN / PRC
Related business
Manufacturer
Unknown
Mission
Spacecraft
Bus & Motor
Unknown
Mass
Unknown
Launch date (UTC)
1999-05-10 (27 years ago)
Launch vehicle
Unknown
Launch site
Taiyaun Space Center, China (TSC)
Object type
Payload
Rocket body
Debris
Shape & HBR
Unknown shape, 0.1 m
Radar Cross Section
Small (<0.1 m²)

Expand to show TLE details & history
Last TLE update: 2 days ago

TLE from 2 days ago
0 FENGYUN 1C DEB
1 37689U 99025ELE 26061.58153326  .00009014  00000-0  23240-2 0  9993
2 37689  98.9155 112.0525 0017097   4.7999 355.3354 14.50192331589694
Epoch: 2026-03-02T13:57Z
TLE epoch observation values (Epoch: 2026-03-02T13:57:24.473Z)
Latitude
-0.00007°
Longitude
102.32765°
Altitude
715.863 km
Speed
7.504 km/s
True Right ascension
07h 28m 12s
True Declination
0° 00' 00"
Sunlit
Object was in full shadow at epoch
Visualization orbit readout
Latitude
Unknown
Longitude
Unknown
Altitude
Unknown
Speed
Unknown
Apparent Right ascension
Unknown
Apparent Declination
Unknown
Sunlit
N/A
Visualization observer readout
Local Sidereal Time
06:11:06
Azimuth
Unknown
Elevation
Unknown
Doppler factor
Unknown
Orbital elements
Apogee altitude
734.288 km
Perigee altitude
710.01 km
Semi-major axis
7,100.286 km
Eccentricity
0.00171
Inclination
98.9155°
RAAN
112.0525°
Arg. of periapsis
4.7999°
True anomaly
355.31943°
Mean anomaly
355.3354°
Eccentric anomaly
355.32742°
Mean motion
3.62768 °/min
Orbital period
99.24 mins
BSTAR
0.002324
Loading maneuver chart data...
Computing Atmospheric mass density...

Documentation

Showing up to 5 results
|